This demonstration page uses our WeatherBlox Daily Observations layout. Learn more.

Left ArrowRight Arrow

41.86663, -103.66717

Hourly Observations for July 5, 2017

Temp ( °F °C ) Dew Point ( °F °C ) Humidity (%) Winds ( mph kmh ) Pressure ( in mb ) Visibility ( mi km ) Precip ( " mm )
12:53 am 00:53 Clear 67 19.4 53 11.7 61 61 E 6 9 29.97 1015 10 16 0.00 0.00
1:53 am 01:53 Clear 65 18.3 56 13.3 73 73 ENE 7 11 29.96 1015 10 16 0.00 0.00
2:53 am 02:53 Clear 65 18.3 56 13.3 73 73 NE 5 7 29.96 1014 10 16 0.00 0.00
3:53 am 03:53 Clear 63 17.2 56 13.3 78 78 E 6 9 29.96 1014 10 16 0.00 0.00
4:53 am 04:53 Clear 60 15.6 54 12.2 80 80 Calm 29.97 1015 10 16 0.00 0.00
5:53 am 05:53 Sunny 59 15 54 12.2 83 83 N 5 7 29.97 1015 10 16 0.00 0.00
6:53 am 06:53 Sunny 67 19.4 56 13.3 68 68 Calm 29.97 1015 10 16 0.00 0.00
7:53 am 07:53 Sunny 72 22.2 57 13.9 59 59 SE 3 6 29.98 1015 10 16 0.00 0.00
8:53 am 08:53 Sunny 76 24.4 58 14.4 54 54 ESE 3 6 30.01 1016 10 16 0.00 0.00
9:53 am 09:53 Sunny 81 27.2 59 15 47 47 VRB 3 6 30.01 1016 10 16 0.00 0.00
10:53 am 10:53 Sunny 86 30 60 15.6 42 42 ESE 7 11 29.99 1016 10 16 0.00 0.00
11:53 am 11:53 Sunny 92 33.3 57 13.9 31 31 SE 8 13 29.97 1015 10 16 0.00 0.00
12:53 pm 12:53 Sunny 96 35.6 54 12.2 24 24 S 8 13 29.95 1014 10 16 0.00 0.00
1:53 pm 13:53 Sunny 99 37.2 43 6.1 15 15 SSW 6 9 29.94 1014 10 16 0.00 0.00
2:53 pm 14:53 Sunny 99 37.2 38 3.3 12 12 Calm 29.93 1014 10 16 0.00 0.00
3:53 pm 15:53 Sunny 99 37.2 38 3.3 12 12 VRB 3 6 29.93 1013 10 16 0.00 0.00
4:53 pm 16:53 Sunny 99 37.2 40 4.4 13 13 S 10 17 29.91 1013 10 16 0.00 0.00
5:53 pm 17:53 Sunny 97 36.1 41 5 14 14 SE 10 17 29.91 1013 10 16 0.00 0.00
6:53 pm 18:53 Sunny 95 35 49 9.4 21 21 SE 9 15 29.90 1013 10 16 0.00 0.00
7:53 pm 19:53 Sunny 89 31.7 52 11.1 28 28 SE 8 13 29.90 1013 10 16 0.00 0.00
8:53 pm 20:53 Clear 82 27.8 55 12.8 40 40 ESE 5 7 29.92 1013 10 16 0.00 0.00
9:53 pm 21:53 Clear 79 26.1 52 11.1 39 39 ESE 6 9 29.94 1014 10 16 0.00 0.00
10:53 pm 22:53 Clear 82 27.8 47 8.3 29 29 SSE 6 9 29.95 1014 10 16 0.00 0.00
11:53 pm 23:53 Clear 84 28.9 47 8.3 27 27 S 8 13 29.94 1014 10 16 0.00 0.00

Powered by AerisWeather